Deming, NM

4:52 PM MDT on April 30, 2017 (GMT -0600)
Deming Municipal

Weather History for KDMN - May, 2013

Change the Weather History Date:

Monday, May 6, 2013

  Actual Average Record
Temperature  
Mean Temperature 70 °F 66 °F  
Max Temperature 79 °F 84 °F 96 °F (1989)
Min Temperature 60 °F 48 °F 32 °F (1950)
Cooling Degree Days 6    
Growing Degree Days 20 (Base 50)    
Moisture  
Dew Point 32 °F    
Average Humidity 24    
Maximum Humidity 37    
Minimum Humidity 17    
Precipitation  
Precipitation 0.00 in 0.03 in 0.20 in (1969)
Month to date precipitation 0.18  
Year to date precipitation 2.16  
Sea Level Pressure  
Sea Level Pressure 29.96 in    
Wind  
Wind Speed 9 mph (West)    
Max Wind Speed 21 mph    
Max Gust Speed 31 mph    
Visibility 10 miles    
Events Rain    
T = Trace of Precipitation, MM = Missing Value Source: NWS Daily Summary

Daily Weather History Graph

Daily Weather History Graph

Search for Another Location

Airport or City:

Trip Planner

Search our weather history database for the weather conditions in past years. The results will help you decide how hot, cold, wet, or windy it might be!

Date:

Astronomy

May. 06, 2013 Rise Set
Actual Time 6:19 AM MDT 7:55 PM MDT
Civil Twilight 5:53 AM MDT 8:22 PM MDT
Nautical Twilight 5:21 AM MDT 8:53 PM MDT
Astronomical Twilight 4:48 AM MDT 9:27 PM MDT
Moon 4:12 AM MDT (5/6) 5:07 PM MDT (5/6)
Length of Visible Light 14h 28m
Length of Day
13h 35m
Waning Crescent, 10% of the Moon is Illuminated
May 6
Waning Crescent
May 9
New
May 17
First Quarter
May 24
Full
May 31
Last Quarter

Hourly Weather History & Observations

Time (MDT) Temp. Dew Point Humidity Pressure Visibility Wind Dir Wind Speed Gust Speed Precip Events Conditions
12:53 AM - - N/A% 29.97 in 10.0 mi SW 3.5 mph - N/A   Partly Cloudy
1:53 AM - - N/A% 29.95 in 10.0 mi South 3.5 mph - N/A   Clear
2:53 AM - - N/A% 29.95 in 10.0 mi SW 8.1 mph - N/A   Partly Cloudy
3:53 AM - - N/A% 29.97 in 10.0 mi West 13.8 mph - N/A   Mostly Cloudy
4:53 AM - - N/A% 30.00 in 10.0 mi West 15.0 mph - 0.00 in Rain Light Rain
5:53 AM - - N/A% 30.03 in 10.0 mi NW 15.0 mph 24.2 mph 0.00 in   Overcast
6:53 AM - - N/A% 30.05 in 10.0 mi NW 9.2 mph - N/A   Mostly Cloudy
7:53 AM - - N/A% 30.06 in 10.0 mi WNW 5.8 mph - N/A   Clear
8:53 AM 64.9 °F 37.9 °F 37% 29.89 in 10.0 mi WNW 13.8 mph - N/A   Clear
9:53 AM 66.9 °F 37.0 °F 33% 29.89 in 10.0 mi West 10.4 mph 19.6 mph N/A   Clear
10:53 AM 71.1 °F 36.0 °F 28% 29.88 in 10.0 mi WNW 13.8 mph 23.0 mph N/A   Clear
11:53 AM 73.0 °F 35.1 °F 25% 30.07 in 10.0 mi WSW 15.0 mph 27.6 mph N/A   Partly Cloudy
12:53 PM 73.0 °F 34.0 °F 24% 30.05 in 10.0 mi West 17.3 mph 31.1 mph N/A   Scattered Clouds
1:53 PM 75.0 °F 33.1 °F 22% 30.02 in 10.0 mi NW 9.2 mph - N/A   Scattered Clouds
2:53 PM 77.0 °F 30.9 °F 19% 30.00 in 10.0 mi WSW 18.4 mph 27.6 mph N/A   Clear
3:53 PM 79.0 °F 30.9 °F 17% 29.98 in 10.0 mi West 15.0 mph 23.0 mph N/A   Clear
4:53 PM 78.1 °F 32.0 °F 19% 29.97 in 10.0 mi West 11.5 mph 27.6 mph N/A   Clear
5:53 PM 78.1 °F 30.0 °F 17% 29.96 in 10.0 mi West 20.7 mph 27.6 mph N/A   Clear
6:53 PM 77.0 °F 28.9 °F 17% 29.96 in 10.0 mi West 11.5 mph - N/A   Clear
7:53 PM 73.0 °F 28.9 °F 20% 29.97 in 10.0 mi WNW 5.8 mph 17.3 mph N/A   Clear
8:53 PM 70.0 °F 28.0 °F 21% 29.81 in 10.0 mi West 6.9 mph - N/A   Partly Cloudy
9:53 PM 66.9 °F 27.0 °F 22% 29.83 in 10.0 mi West 5.8 mph - N/A   Clear
10:53 PM 62.1 °F 28.9 °F 29% 29.85 in 10.0 mi West 4.6 mph - N/A   Clear
11:53 PM 60.1 °F 28.9 °F 31% 29.86 in 10.0 mi WNW 6.9 mph - N/A   Clear